This demonstration page uses our WeatherBlox Daily Observations layout. Learn more.

Left ArrowRight Arrow

Hourly Observations for April 14, 2021

Temp ( °F °C ) Dew Point ( °F °C ) Humidity (%) Winds ( mph kmh ) Pressure ( in mb ) Visibility ( mi km ) Precip ( " mm )
12:54 am 00:54 Clear 36 2.2 24 -4.4 62 62 N 6 9 30.3 1026 10 16.0934 0 0
1:54 am 01:54 Clear 35 1.7 24 -4.4 64 64 N 6 9 30.31 1026 10 16.0934 0 0
2:54 am 02:54 Clear 36 2.2 24 -4.4 62 62 WNW 3 6 30.31 1026 10 16.0934 0 0
3:54 am 03:54 Clear 35 1.7 23 -5 61 61 NW 6 9 30.31 1026 10 16.0934 0 0
4:54 am 04:54 Clear 30 -1.1 22 -5.6 72 72 NNW 5 7 30.32 1027 10 16.0934 0 0
5:54 am 05:54 Clear 32 0 22 -5.6 66 66 NNW 6 9 30.32 1027 10 16.0934 0 0
6:54 am 06:54 Sunny 32 0 21 -6.1 64 64 NW 5 7 30.33 1027 10 16.0934 0 0
7:54 am 07:54 Sunny 34 1.1 22 -5.6 61 61 NW 6 9 30.34 1028 10 16.0934 0 0
8:54 am 08:54 Sunny 39 3.9 24 -4.4 55 55 NW 8 13 30.35 1028 10 16.0934 0 0
9:54 am 09:54 Sunny 42 5.6 22 -5.6 45 45 NNW 17 28 30.35 1028 10 16.0934 0 0
10:54 am 10:54 Sunny 44 6.7 22 -5.6 41 41 WNW 15 24 30.34 1028 10 16.0934 0 0
11:54 am 11:54 Sunny 45 7.2 24 -4.4 44 44 NNW 15 24 30.33 1027 10 16.0934 0 0
12:54 pm 12:54 Sunny 48 8.9 25 -3.9 41 41 NNW 15 24 30.32 1027 10 16.0934 0 0
1:54 pm 13:54 Sunny 49 9.4 25 -3.9 39 39 NNW 15 24 30.31 1026 10 16.0934 0 0
2:54 pm 14:54 Mostly Sunny 50 10 26 -3.3 39 39 NW 13 20 30.29 1026 10 16.0934 0 0
3:54 pm 15:54 Mostly Sunny 51 10.6 27 -2.8 39 39 NNW 14 22 30.26 1025 10 16.0934 0 0
4:54 pm 16:54 Sunny 49 9.4 27 -2.8 43 43 N 16 26 30.26 1025 10 16.0934 0 0
5:54 pm 17:54 Sunny 48 8.9 26 -3.3 42 42 N 18 30 30.24 1024 10 16.0934 0 0
6:54 pm 18:54 Mostly Sunny 46 7.8 26 -3.3 46 46 N 14 22 30.24 1024 10 16.0934 0 0
7:54 pm 19:54 Sunny 46 7.8 24 -4.4 42 42 NNW 7 11 30.25 1024 10 16.0934 0 0
8:54 pm 20:54 Clear 43 6.1 25 -3.9 49 49 NNW 7 11 30.25 1025 10 16.0934 0 0
9:54 pm 21:54 Clear 39 3.9 25 -3.9 57 57 N 5 7 30.26 1025 10 16.0934 0 0
10:54 pm 22:54 Clear 41 5 26 -3.3 55 55 NW 6 9 30.27 1025 10 16.0934 0 0
11:54 pm 23:54 Clear 40 4.4 27 -2.8 60 60 NNW 7 11 30.29 1026 10 16.0934 0 0

Powered by AerisWeather